Location: Lake of the Woods (North-East)
(49.6672°N, 94.8656°W)
Time: 01:31:07
(UTC-06:00)

ISS - All Passes

Search period start: 27 February 2015 00:00
Search period end: 09 March 2015 01:00
Orbit: 397 x 408 km, 51.6° (Epoch: 26 February)

Date Brightness Start Highest point End Pass type
(mag) Time Alt. Az. Time Alt. Az. Time Alt. Az.
27 Feb - 10:05:38 10° SSE 10:06:48 12° SE 10:08:04 10° ESE daylight
27 Feb - 11:39:32 10° SW 11:42:42 54° SSE 11:45:52 10° ENE daylight
27 Feb - 13:15:55 10° W 13:19:07 61° N 13:22:21 10° ENE daylight
27 Feb - 14:52:29 10° WNW 14:55:44 74° NNE 14:58:59 10° E daylight
27 Feb - 16:29:02 10° W 16:32:00 33° SSW 16:34:58 10° SSE daylight
28 Feb - 10:46:35 10° SW 10:49:32 34° SSE 10:52:32 10° E daylight
28 Feb - 12:22:35 10° W 12:25:49 73° NNW 12:29:04 10° ENE daylight
28 Feb - 13:59:11 10° WNW 14:02:25 62° N 14:05:38 10° E daylight
28 Feb - 15:35:38 10° WNW 15:38:48 51° SSW 15:41:58 10° SE daylight
28 Feb - 17:13:36 10° WSW 17:14:40 11° SW 17:15:38 10° SSW daylight
01 Mar - 09:53:42 10° SSW 09:56:13 21° SE 09:58:47 10° E daylight
01 Mar - 11:29:04 10° WSW 11:32:19 86° SSE 11:35:33 10° ENE daylight
01 Mar - 13:05:37 10° W 13:08:50 58° N 13:12:03 10° E daylight
01 Mar - 14:42:05 10° WNW 14:45:20 77° SSW 14:48:34 10° ESE daylight
01 Mar - 16:19:00 10° W 16:21:21 19° SW 16:23:41 10° S daylight
02 Mar - 09:01:10 10° SSE 09:02:45 13° SE 09:04:23 10° ESE daylight
02 Mar - 10:35:26 10° SW 10:38:37 59° SSE 10:41:49 10° ENE daylight
02 Mar - 12:11:49 10° W 12:15:02 60° N 12:18:15 10° ENE daylight
02 Mar - 13:48:20 10° WNW 13:51:35 78° NNE 13:54:50 10° ESE daylight
02 Mar - 15:24:53 10° W 15:27:46 30° SSW 15:30:38 10° SSE daylight
03 Mar - 09:41:44 10° SW 09:44:45 37° SSE 09:47:47 10° E daylight
03 Mar - 11:17:47 10° W 11:21:01 70° NNW 11:24:15 10° ENE daylight
03 Mar - 12:54:20 10° WNW 12:57:34 64° N 13:00:47 10° E daylight
03 Mar - 14:30:45 10° WNW 14:33:54 47° SSW 14:37:01 10° SE daylight
04 Mar - 08:48:06 10° SSW 08:50:44 23° SE 08:53:24 10° E daylight
04 Mar - 10:23:33 10° WSW 10:26:48 90° NW 10:30:03 10° ENE daylight
04 Mar - 12:00:06 10° WNW 12:03:18 58° N 12:06:30 10° E daylight
04 Mar - 13:36:30 10° WNW 13:39:45 73° SSW 13:42:58 10° ESE daylight
04 Mar - 15:13:27 10° W 15:15:41 17° SW 15:17:51 10° S daylight
05 Mar - 07:54:46 10° S 07:56:33 14° SE 07:58:24 10° ESE daylight
05 Mar - 09:29:13 10° WSW 09:32:25 63° SSE 09:35:38 10° ENE daylight
05 Mar - 11:05:35 10° W 11:08:48 59° N 11:12:01 10° ENE daylight
05 Mar - 12:42:03 10° WNW 12:45:18 81° NNE 12:48:32 10° ESE daylight
05 Mar - 14:18:35 10° W 14:21:25 28° SW 14:24:13 10° SSE daylight
06 Mar - 08:34:48 10° SW 08:37:51 40° SSE 08:40:55 10° E daylight
06 Mar - 10:10:51 10° W 10:14:05 68° NNW 10:17:19 10° ENE daylight
06 Mar - 11:47:21 10° WNW 11:50:35 65° N 11:53:49 10° E daylight
06 Mar - 13:23:44 10° WNW 13:26:51 45° SSW 13:29:57 10° SE daylight
07 Mar - 07:40:26 10° SSW 07:43:08 24° SE 07:45:51 10° E daylight
07 Mar - 09:15:56 10° WSW 09:19:10 87° NNW 09:22:25 10° ENE daylight
07 Mar - 10:52:25 10° WNW 10:55:37 58° N 10:58:50 10° E daylight
07 Mar - 12:28:46 10° WNW 12:32:00 70° SSW 12:35:14 10° ESE daylight
07 Mar - 14:05:45 10° W 14:07:53 16° SW 14:09:58 10° S daylight
08 Mar - 07:46:22 10° S 07:48:15 15° SE 07:50:11 10° ESE daylight
08 Mar - 09:20:52 10° WSW 09:24:04 65° SSE 09:27:18 10° ENE daylight
08 Mar - 10:57:13 10° W 11:00:25 59° N 11:03:38 10° ENE daylight
08 Mar - 12:33:37 10° WNW 12:36:52 83° NNE 12:40:07 10° ESE daylight
08 Mar - 14:10:07 10° W 14:12:56 27° SW 14:15:42 10° SSE daylight
